Powrót do katalogu

DELTA 1 DEB

AktywnySSO
NORAD 7128·DEBRIS·🇺🇸 United States

Wystrzelony Nov 6, 1973 z Vandenberg Space Force Base

Loading…

Następne Przeloty (najbliższe 24 godziny)

TLE

ŚwieżeSource: Space-Track

Epoka: Sep 13, 2026, 22:13 UTC

1 07128U 73086CS  26256.92635534  .00000116  00000-0  85979-3 0  9999
2 07128 101.6331  11.6374 0039816 234.7730 250.2736 12.65946419425159

Śledź DELTA 1 DEB w czasie rzeczywistym z AllMySat

Download on the App Store